When you browse on this site, cookies collect data to enhance your experience and personalize the content and advertising you see.
Visit our Privacy Policy to learn more. By continuing to use the site, you agree to this use of cookies and data.
  • In Schweiz
  • Länderverzeichnis
  • Für 7 Tage
  • Wassertemperatur
  • Satellitenkarten
  • Wetterkarte
  • Widgets
  • user-avatar
    Anmelden

    Stündliche Wetter Freising

    Heute, 26 Mai, Sonntag

    Zeit Temperatur Niederschläge Wind Luftdruck Luftfeuchtigkeit
    00:00 +12°C° 0 mm 2 m/S 721 mmHg 88%
    01:00 +11°C° 0 mm 3 m/S 721 mmHg 91%
    02:00 +10°C° 0 mm 2 m/S 721 mmHg 91%
    03:00 +10°C° 0 mm 2 m/S 721 mmHg 92%
    04:00 +9°C° 0 mm 2 m/S 721 mmHg 93%
    05:00 +10°C° 0 mm 2 m/S 721 mmHg 91%
    06:00 +12°C° 0 mm 2 m/S 721 mmHg 89%
    07:00 +13°C° 0 mm 2 m/S 721 mmHg 87%
    08:00 +15°C° 0 mm 2 m/S 721 mmHg 80%
    09:00 +17°C° 0 mm 2 m/S 721 mmHg 74%
    10:00 +18°C° 0 mm 2 m/S 721 mmHg 67%
    11:00 +19°C° 0 mm 2 m/S 720 mmHg 63%
    12:00 +20°C° 0 mm 2 m/S 720 mmHg 60%
    13:00 +22°C° 0 mm 1 m/S 721 mmHg 57%
    14:00 +22°C° 0 mm 1 m/S 720 mmHg 57%
    15:00 +22°C° 0 mm 1 m/S 720 mmHg 57%
    16:00 +21°C° 0 mm 2 m/S 719 mmHg 56%
    17:00 +21°C° 0 mm 1 m/S 719 mmHg 61%
    18:00 +20°C° 0 mm 1 m/S 719 mmHg 66%
    19:00 +19°C° 0 mm 1 m/S 719 mmHg 71%
    20:00 +18°C° 0 mm 1 m/S 719 mmHg 74%
    21:00 +15°C° 0 mm 1 m/S 719 mmHg 78%
    22:00 +13°C° 0 mm 0 m/S 719 mmHg 82%
    23:00 +12°C° 0 mm 0 m/S 719 mmHg 83%

    Morgen, 27 Mai, Montag

    Zeit Temperatur Niederschläge Wind Luftdruck Luftfeuchtigkeit
    00:00 +12°C° 0 mm 0 m/S 719 mmHg 85%
    01:00 +11°C° 0 mm 0 m/S 718 mmHg 86%
    02:00 +11°C° 0 mm 0 m/S 718 mmHg 87%
    03:00 +11°C° 0 mm 0 m/S 718 mmHg 88%
    04:00 +11°C° 0 mm 1 m/S 718 mmHg 90%
    05:00 +13°C° 0 mm 1 m/S 718 mmHg 87%
    06:00 +14°C° 0 mm 1 m/S 718 mmHg 84%
    07:00 +15°C° 0 mm 1 m/S 718 mmHg 81%
    08:00 +16°C° 0 mm 1 m/S 717 mmHg 76%
    09:00 +19°C° 0 mm 1 m/S 717 mmHg 72%
    10:00 +20°C° 0 mm 1 m/S 717 mmHg 67%
    11:00 +20°C° 0.1 mm 2 m/S 717 mmHg 66%
    12:00 +20°C° 0.1 mm 2 m/S 716 mmHg 65%
    13:00 +21°C° 0.1 mm 2 m/S 716 mmHg 64%
    14:00 +21°C° 0.6 mm 2 m/S 715 mmHg 65%
    15:00 +21°C° 0.6 mm 2 m/S 715 mmHg 67%
    16:00 +21°C° 0.6 mm 1 m/S 715 mmHg 68%
    17:00 +19°C° 0.6 mm 2 m/S 715 mmHg 74%
    18:00 +18°C° 0.6 mm 2 m/S 714 mmHg 81%
    19:00 +16°C° 0.6 mm 2 m/S 714 mmHg 87%
    20:00 +16°C° 0.3 mm 3 m/S 714 mmHg 89%
    21:00 +14°C° 0.3 mm 3 m/S 714 mmHg 91%
    22:00 +14°C° 0.3 mm 4 m/S 714 mmHg 92%
    23:00 +14°C° 0.2 mm 3 m/S 714 mmHg 93%

    übermorgen, 28 Mai, Dienstag

    Zeit Temperatur Niederschläge Wind Luftdruck Luftfeuchtigkeit
    00:00 +13°C° 0.2 mm 3 m/S 713 mmHg 94%
    01:00 +13°C° 0.2 mm 3 m/S 713 mmHg 95%
    02:00 +12°C° 0.4 mm 3 m/S 713 mmHg 95%
    03:00 +12°C° 0.4 mm 3 m/S 713 mmHg 96%
    04:00 +12°C° 0.4 mm 3 m/S 713 mmHg 97%
    05:00 +12°C° 0.5 mm 3 m/S 713 mmHg 96%
    06:00 +12°C° 0.5 mm 3 m/S 713 mmHg 95%
    07:00 +12°C° 0.5 mm 3 m/S 713 mmHg 95%
    08:00 +12°C° 0.6 mm 3 m/S 713 mmHg 94%
    09:00 +13°C° 0.6 mm 3 m/S 714 mmHg 93%
    10:00 +13°C° 0.6 mm 3 m/S 714 mmHg 92%
    11:00 +13°C° 1.5 mm 4 m/S 714 mmHg 92%
    12:00 +12°C° 1.5 mm 5 m/S 714 mmHg 92%
    13:00 +12°C° 1.5 mm 5 m/S 715 mmHg 92%
    14:00 +12°C° 1.3 mm 5 m/S 715 mmHg 91%
    15:00 +12°C° 1.3 mm 4 m/S 715 mmHg 90%
    16:00 +12°C° 1.3 mm 4 m/S 715 mmHg 89%
    17:00 +12°C° 0.3 mm 4 m/S 716 mmHg 89%
    18:00 +11°C° 0.3 mm 4 m/S 716 mmHg 90%
    19:00 +11°C° 0.3 mm 3 m/S 717 mmHg 90%
    20:00 +10°C° 0.1 mm 4 m/S 717 mmHg 90%
    21:00 +10°C° 0.1 mm 4 m/S 718 mmHg 91%
    22:00 +10°C° 0.1 mm 4 m/S 718 mmHg 91%
    23:00 +8°C° 0.1 mm 4 m/S 718 mmHg 92%

    29 Mai, Mittwoch

    Zeit Temperatur Niederschläge Wind Luftdruck Luftfeuchtigkeit
    00:00 +8°C° 0.1 mm 4 m/S 718 mmHg 93%
    01:00 +9°C° 0.1 mm 3 m/S 718 mmHg 93%
    02:00 +9°C° 0.2 mm 3 m/S 719 mmHg 93%
    03:00 +9°C° 0.2 mm 3 m/S 719 mmHg 94%
    04:00 +8°C° 0.2 mm 3 m/S 719 mmHg 94%
    05:00 +8°C° 0.2 mm 4 m/S 719 mmHg 93%
    06:00 +8°C° 0.2 mm 4 m/S 720 mmHg 93%
    07:00 +8°C° 0.2 mm 4 m/S 720 mmHg 92%
    08:00 +10°C° 0.2 mm 4 m/S 720 mmHg 89%
    09:00 +11°C° 0.2 mm 4 m/S 721 mmHg 86%
    10:00 +12°C° 0.2 mm 3 m/S 721 mmHg 83%
    11:00 +13°C° 0.3 mm 3 m/S 721 mmHg 80%
    12:00 +14°C° 0.3 mm 3 m/S 721 mmHg 77%
    13:00 +16°C° 0.3 mm 3 m/S 721 mmHg 74%
    14:00 +16°C° 0.4 mm 3 m/S 721 mmHg 74%
    15:00 +16°C° 0.4 mm 3 m/S 721 mmHg 73%
    16:00 +16°C° 0.4 mm 3 m/S 721 mmHg 73%
    17:00 +16°C° 0.5 mm 3 m/S 721 mmHg 77%
    18:00 +14°C° 0.5 mm 3 m/S 721 mmHg 81%
    19:00 +13°C° 0.5 mm 3 m/S 721 mmHg 85%
    20:00 +12°C° 0.4 mm 3 m/S 722 mmHg 87%
    21:00 +11°C° 0.4 mm 3 m/S 723 mmHg 89%
    22:00 +10°C° 0.4 mm 3 m/S 723 mmHg 91%
    23:00 +10°C° 0 mm 3 m/S 723 mmHg 92%

    30 Mai, Donnerstag

    Zeit Temperatur Niederschläge Wind Luftdruck Luftfeuchtigkeit
    00:00 +9°C° 0 mm 3 m/S 723 mmHg 92%
    01:00 +9°C° 0 mm 3 m/S 724 mmHg 93%
    02:00 +8°C° 0 mm 3 m/S 724 mmHg 93%
    03:00 +8°C° 0 mm 3 m/S 724 mmHg 93%
    04:00 +8°C° 0 mm 3 m/S 724 mmHg 92%
    05:00 +9°C° 0 mm 3 m/S 724 mmHg 90%
    06:00 +10°C° 0 mm 3 m/S 724 mmHg 87%
    07:00 +11°C° 0 mm 4 m/S 724 mmHg 84%
    08:00 +11°C° 0.1 mm 4 m/S 724 mmHg 84%
    09:00 +12°C° 0.1 mm 5 m/S 724 mmHg 84%
    10:00 +12°C° 0.1 mm 5 m/S 724 mmHg 83%
    11:00 +12°C° 0.4 mm 5 m/S 724 mmHg 86%
    12:00 +12°C° 0.4 mm 5 m/S 724 mmHg 88%
    13:00 +12°C° 0.4 mm 4 m/S 724 mmHg 91%
    14:00 +12°C° 0.3 mm 4 m/S 724 mmHg 91%
    15:00 +12°C° 0.3 mm 4 m/S 724 mmHg 92%
    16:00 +13°C° 0.3 mm 3 m/S 724 mmHg 93%
    17:00 +13°C° 0.2 mm 4 m/S 724 mmHg 92%
    18:00 +13°C° 0.2 mm 4 m/S 724 mmHg 92%
    19:00 +13°C° 0.2 mm 4 m/S 724 mmHg 91%
    20:00 +13°C° 0.2 mm 4 m/S 724 mmHg 92%
    21:00 +13°C° 0.2 mm 4 m/S 724 mmHg 93%
    22:00 +12°C° 0.2 mm 4 m/S 725 mmHg 94%
    23:00 +12°C° 0 mm 4 m/S 724 mmHg 94%

    31 Mai, Freitag

    Zeit Temperatur Niederschläge Wind Luftdruck Luftfeuchtigkeit
    00:00 +12°C° 0 mm 4 m/S 724 mmHg 95%
    01:00 +11°C° 0 mm 4 m/S 724 mmHg 95%
    02:00 +12°C° 1 mm 4 m/S 723 mmHg 95%
    03:00 +12°C° 1 mm 4 m/S 723 mmHg 95%
    04:00 +12°C° 1 mm 5 m/S 723 mmHg 95%
    05:00 +11°C° 1.1 mm 6 m/S 723 mmHg 94%
    06:00 +11°C° 1.1 mm 7 m/S 723 mmHg 93%
    07:00 +11°C° 1.1 mm 8 m/S 723 mmHg 92%
    08:00 +11°C° 1.2 mm 7 m/S 723 mmHg 92%
    09:00 +11°C° 1.2 mm 6 m/S 724 mmHg 91%
    10:00 +13°C° 1.2 mm 5 m/S 724 mmHg 90%
    11:00 +13°C° 0.2 mm 5 m/S 725 mmHg 86%
    12:00 +13°C° 0.2 mm 6 m/S 726 mmHg 83%
    13:00 +13°C° 0.2 mm 6 m/S 727 mmHg 79%
    14:00 +14°C° 0 mm 6 m/S 727 mmHg 73%
    15:00 +14°C° 0 mm 5 m/S 727 mmHg 67%
    16:00 +15°C° 0 mm 5 m/S 728 mmHg 62%
    17:00 +14°C° 0 mm 4 m/S 728 mmHg 64%
    18:00 +13°C° 0 mm 3 m/S 729 mmHg 66%
    19:00 +13°C° 0 mm 2 m/S 729 mmHg 69%
    20:00 +12°C° 0 mm 2 m/S 730 mmHg 71%
    21:00 +10°C° 0 mm 2 m/S 730 mmHg 72%
    22:00 +8°C° 0 mm 2 m/S 731 mmHg 74%
    23:00 +8°C° 0 mm 2 m/S 731 mmHg 77%
    Mehr zeigen